Simultaneous Nadir Overpasses (SNOs) Predictions

Prediction of SNOs between GOES-17 and METOP-C Satellite Orbit:

Table of predicted SNOs for the next 14.0 days since TLE Epoch: 9/2/2023
Index Date Time (GOES-17) GOES-17 Lat,Lon METOP-C Lat,Lon Distance(km) Time Diff (sec)
1 09/02/2023 04:44:28 0.00,-104.69 -0.79,-108.31 412.66 80
2 09/03/2023 04:21:07 0.00,-104.69 0.32,-103.31 156.79 80
3 09/04/2023 16:39:58 0.00,-104.72 0.70,-107.87 359.85 80
4 09/05/2023 16:21:57 0.00,-104.72 -0.42,-102.88 209.95 80
5 09/07/2023 04:40:56 0.00,-104.70 -0.60,-107.47 315.47 80
6 09/08/2023 04:17:35 0.00,-104.70 0.51,-102.47 253.89 80
7 09/09/2023 16:36:24 -0.00,-104.72 0.53,-107.02 263.15 80
8 09/10/2023 16:18:24 -0.00,-104.72 -0.59,-102.03 306.73 80
9 09/12/2023 04:37:22 0.01,-104.71 -0.44,-106.62 218.14 80
10 09/13/2023 04:14:02 0.00,-104.71 0.69,-101.63 351.63 80
11 09/14/2023 16:32:51 -0.01,-104.74 0.34,-106.18 164.97 80
12 09/15/2023 16:14:51 -0.00,-104.74 -0.80,-101.19 405.36 80
